Jackson, TN

9:38 AM CDT on September 18, 2019 (GMT -0500)
McKellar-Sipes Regional

Weather History for KMKL - July, 2019

Change the Weather History Date:

Thursday, July 11, 2019

  Actual Average Record
Temperature  
Mean Temperature 81 °F 80 °F  
Max Temperature 91 °F 91 °F 104 °F (1980)
Min Temperature 71 °F 69 °F 58 °F (1956)
Degree Days  
Heating Degree Days 0 0  
Month to date heating degree days 0 0  
Since 1 June heating degree days 1 2  
Since 1 July heating degree days 0 0  
Cooling Degree Days 16 15  
Month to date cooling degree days 188 158  
Year to date cooling degree days 769 712  
Since 1 June cooling degree days 509 497  
Growing Degree Days 30 (Base 50)    
Moisture  
Dew Point 73 °F    
Average Humidity 80    
Maximum Humidity 100    
Minimum Humidity 59    
Precipitation  
Precipitation 0.00 in 0.15 in 2.92 in (1990)
Month to date precipitation 2.11 1.61  
Year to date precipitation 34.93 29.99  
Sea Level Pressure  
Sea Level Pressure 29.94 in    
Wind  
Wind Speed 4 mph (NNW)    
Max Wind Speed 14 mph    
Max Gust Speed 18 mph    
Visibility 6 miles    
Events Fog    
T = Trace of Precipitation, MM = Missing Value Source: NWS Daily Summary

Daily Weather History Graph

Daily Weather History Graph

Search for Another Location

Airport or City:

Astronomy

Jul. 11, 2019 Rise Set
Actual Time 5:48 AM CDT 8:13 PM CDT
Civil Twilight 5:19 AM CDT 8:42 PM CDT
Nautical Twilight 4:43 AM CDT 9:18 PM CDT
Astronomical Twilight 4:03 AM CDT 9:58 PM CDT
Moon 3:31 PM CDT (7/11) 1:52 AM CDT (7/11)
Length of Visible Light 15h 23m
Length of Day
14h 24m
Waxing Gibbous, 74% of the Moon is Illuminated
Jul 11
Waxing Gibbous
Jul 16
Full
Jul 24
Last Quarter
Jul 31
New
Aug 7
First Quarter

Hourly Weather History & Observations

Time (CDT) Temp. Heat Index Dew Point Humidity Pressure Visibility Wind Dir Wind Speed Gust Speed Precip Events Conditions
12:11 AM 75.0 °F - 73.9 °F 96% 29.97 in 8.0 mi Calm Calm - N/A   Mostly Cloudy
12:53 AM 73.9 °F - 73.9 °F 100% 29.95 in 7.0 mi Calm Calm - N/A   Scattered Clouds
1:53 AM 73.9 °F - 73.9 °F 100% 29.95 in 6.0 mi WNW 4.6 mph - N/A   Clear
2:25 AM 73.9 °F - 73.0 °F 97% 29.96 in 6.0 mi NNW 5.8 mph - N/A   Partly Cloudy
2:37 AM 73.9 °F - 73.9 °F 100% 29.96 in 5.0 mi NW 3.5 mph - N/A   Mostly Cloudy
2:53 AM 73.9 °F - 73.9 °F 100% 29.95 in 5.0 mi Calm Calm - N/A   Mostly Cloudy
3:02 AM 73.9 °F - 73.0 °F 97% 29.97 in 6.0 mi NNW 4.6 mph - N/A   Scattered Clouds
3:53 AM 73.0 °F - 73.0 °F 100% 29.95 in 6.0 mi Calm Calm - N/A   Clear
4:07 AM 73.0 °F - 72.0 °F 96% 29.96 in 1.8 mi Calm Calm - N/A   Clear
4:14 AM 73.0 °F - 72.0 °F 96% 29.96 in 2.0 mi Calm Calm - N/A   Clear
4:23 AM 72.0 °F - 71.1 °F 97% 29.96 in 1.8 mi Calm Calm - N/A   Clear
4:30 AM 73.0 °F - 72.0 °F 96% 29.96 in 2.5 mi Calm Calm - N/A   Clear
4:40 AM 72.0 °F - 72.0 °F 100% 29.96 in 0.8 mi Calm Calm - N/A   Clear
4:53 AM 72.0 °F - 72.0 °F 100% 29.95 in 1.8 mi Calm Calm - N/A   Clear
5:00 AM 72.0 °F - 72.0 °F 100% 29.96 in 1.0 mi Calm Calm - N/A   Mist
5:07 AM 72.0 °F - 72.0 °F 100% 29.96 in 0.5 mi Calm Calm - N/A Fog Fog
5:23 AM 72.0 °F - 71.1 °F 97% 29.96 in 0.5 mi Calm Calm - N/A Fog Fog
5:28 AM 72.0 °F - 72.0 °F 100% 29.96 in 1.0 mi Calm Calm - N/A   Overcast
5:42 AM 72.0 °F - 72.0 °F 100% 29.96 in 3.0 mi Calm Calm - N/A   Scattered Clouds
5:47 AM 71.6 °F - 71.6 °F 100% 29.96 in 1.5 mi Calm Calm - N/A   Scattered Clouds
5:53 AM 71.1 °F - 71.1 °F 100% 29.95 in 0.8 mi Calm Calm - N/A   Scattered Clouds
6:01 AM 72.0 °F - 72.0 °F 100% 29.96 in 2.0 mi Calm Calm - N/A   Mostly Cloudy
6:10 AM 72.0 °F - 72.0 °F 100% 29.96 in 4.0 mi Calm Calm - N/A   Mostly Cloudy
6:53 AM 73.9 °F - 73.0 °F 97% 29.95 in 6.0 mi WSW 3.5 mph - N/A   Mostly Cloudy
7:53 AM 75.9 °F - 73.9 °F 94% 29.96 in 10.0 mi Calm Calm - N/A   Clear
8:53 AM 80.1 °F 84.5 °F 73.9 °F 81% 29.97 in 10.0 mi North 4.6 mph - N/A   Partly Cloudy
9:39 AM 79.0 °F - 73.9 °F 84% 29.98 in 10.0 mi Calm Calm - N/A   Mostly Cloudy
9:53 AM 81.0 °F 86.7 °F 75.0 °F 82% 29.97 in 10.0 mi NNW 3.5 mph - N/A   Mostly Cloudy
10:38 AM 82.0 °F 88.6 °F 75.0 °F 79% 29.98 in 10.0 mi Calm Calm - N/A   Scattered Clouds
10:53 AM 82.9 °F 90.2 °F 75.0 °F 77% 29.96 in 10.0 mi East 3.5 mph - N/A   Partly Cloudy
11:53 AM 84.9 °F 93.3 °F 75.0 °F 72% 29.94 in 10.0 mi South 3.5 mph - N/A   Clear
12:53 PM 87.1 °F 97.3 °F 75.9 °F 69% 29.92 in 10.0 mi WNW 5.8 mph - N/A   Scattered Clouds
1:53 PM 89.1 °F 99.1 °F 75.0 °F 63% 29.90 in 10.0 mi NNW 9.2 mph - N/A   Scattered Clouds
2:53 PM 90.0 °F 100.2 °F 75.0 °F 61% 29.88 in 10.0 mi WNW 6.9 mph - N/A   Partly Cloudy
3:53 PM 90.0 °F 99.0 °F 73.9 °F 59% 29.87 in 10.0 mi NNW 6.9 mph - N/A   Mostly Cloudy
4:53 PM 90.0 °F 97.9 °F 73.0 °F 57% 29.86 in 10.0 mi NW 10.4 mph - N/A   Partly Cloudy
5:53 PM 90.0 °F 99.0 °F 73.9 °F 59% 29.85 in 10.0 mi North 10.4 mph - N/A   Scattered Clouds
6:53 PM 87.1 °F 94.5 °F 73.0 °F 63% 29.86 in 10.0 mi North 11.5 mph - N/A   Clear
7:53 PM 82.0 °F 86.7 °F 72.0 °F 71% 29.88 in 10.0 mi North 6.9 mph - N/A   Clear
8:53 PM 77.0 °F - 73.0 °F 88% 29.88 in 10.0 mi North 3.5 mph - N/A   Clear
9:53 PM 75.9 °F - 72.0 °F 87% 29.89 in 10.0 mi Calm Calm - N/A   Clear
10:53 PM 73.9 °F - 72.0 °F 93% 29.90 in 10.0 mi Calm Calm - N/A   Clear
11:53 PM 73.0 °F - 72.0 °F 96% 29.91 in 8.0 mi Calm Calm - N/A   Clear